Dewpoint
57 58 57 57 58 58 58 58 59 59 60 60 60 60 59 59 59 60 58 58 57 57 57 57 57 58 58 58 59 59 58 58 58 58 58 57 56 55 53 53 52 53 55 56 55 58 58 58 59 59 59 58 54 55 53 52 54 54 53 51 49 53 50 46 40 45 50 51 48 40 41 45 38 38 37 42 46 46 45 44 44 44 39 39 40
56 56 57 57 57 58 58 58 59 59 60 60 60 58 59 59 59 58 59 56 55 53 54 57 57 56 56 56 57 56 56 55 55 56 54 55 55 55 54 52 52 52 54 52 54 54 57 55 54 56 57 59 57 49 50 50 48 48 48 48 46 49 52 40 41 40 44 49 45 44 44 45 35 37 42 44 45 45 39 44 46 44 41 42 38
56 56 56 57 57 58 58 58 57 59 59 59 59 57 58 58 57 58 57 55 55 54 55 55 55 55 54 55 54 54 53 53 55 56 56 55 52 54 55 54 54 54 54 52 49 51 53 54 54 55 55 58 58 55 53 50 47 45 47 46 47 47 44 41 42 41 43 43 47 42 42 44 44 37 37 42 43 41 39 39 40 41 42 47 43
56 56 56 57 58 57 57 57 58 58 59 59 59 58 57 57 56 57 55 54 52 54 54 53 53 53 53 52 53 53 53 53 53 53 52 53 52 51 52 54 54 55 53 50 48 51 54 55 55 55 55 56 56 55 53 52 50 47 49 49 50 47 49 50 46 44 42 40 44 37 39 45 41 41 39 41 44 42 38 38 42 40 41 40 42
56 56 57 57 56 57 57 57 58 58 59 58 59 58 57 56 56 54 55 54 53 52 51 52 52 51 54 50 50 51 52 52 52 53 55 56 55 54 52 51 54 54 54 53 53 52 53 54 53 54 55 55 55 54 53 54 48 49 49 46 45 48 49 47 44 43 44 42 44 42 43 39 38 40 37 36 38 40 39 38 35 36 40 40 37
57 57 57 57 57 57 57 57 56 56 56 57 57 57 56 56 55 55 53 53 54 53 51 49 46 46 48 49 49 49 49 50 49 50 52 54 55 56 55 53 53 52 53 53 51 53 54 52 53 54 54 56 55 55 54 53 50 51 49 47 43 47 49 48 47 45 41 38 42 46 45 38 39 41 39 39 37 35 36 39 40 41 42 45 41
56 56 57 58 57 57 57 57 57 56 55 55 55 54 55 56 54 53 54 54 53 52 52 50 51 48 48 50 49 50 48 48 51 53 52 52 53 53 54 54 54 54 52 51 51 52 52 52 54 54 54 55 56 55 55 55 55 53 52 54 47 47 49 46 41 41 42 41 42 44 43 44 45 41 38 39 39 37 40 41 42 39 44 46 45
55 56 56 58 58 58 58 58 57 57 56 55 55 55 53 54 54 55 53 53 53 51 50 51 52 49 51 50 52 52 51 49 50 50 50 52 53 53 53 54 53 54 54 52 53 51 52 52 53 52 53 54 55 56 57 55 55 54 54 53 51 51 50 48 46 41 42 43 39 42 42 43 43 46 40 38 37 37 35 38 39 44 45 47 46
56 56 57 57 56 57 57 57 57 57 57 58 56 55 55 55 54 53 54 55 56 53 52 51 51 50 49 51 50 53 54 54 51 52 51 51 50 53 53 50 52 52 52 52 53 52 51 52 53 53 56 55 49 50 51 51 55 53 55 54 53 52 51 49 47 44 43 43 42 45 43 42 43 44 42 41 40 38 42 44 42 44 44 44 43
56 55 55 55 55 55 55 55 56 57 57 57 57 57 56 57 56 56 55 55 55 55 54 53 51 51 49 50 53 54 53 53 48 45 46 50 52 48 54 54 51 51 51 52 53 53 52 52 54 54 52 52 49 46 45 46 48 53 55 55 53 52 51 50 47 45 44 43 40 43 43 43 42 47 45 45 45 47 48 47 43 45 45 44 44
52 51 50 50 50 49 49 48 48 49 50 50 50 51 52 54 55 55 56 56 57 56 55 53 52 51 50 50 51 54 53 49 40 40 42 44 51 53 53 54 54 54 52 52 52 52 53 51 54 55 54 52 52 45 44 43 43 44 45 48 51 53 51 49 48 49 45 44 44 47 44 45 47 47 46 45 50 47 46 47 45 46 44 42 41
47 46 46 45 46 45 47 44 43 43 43 43 44 45 46 47 48 49 51 52 53 55 56 56 56 56 56 54 54 52 48 41 39 40 40 40 43 54 53 52 53 53 54 52 50 51 52 54 55 56 55 54 53 54 49 43 43 43 43 43 43 43 44 52 50 51 51 48 48 49 48 47 47 50 47 47 47 48 47 48 47 46 44 43 42
45 45 44 43 44 43 42 40 40 40 40 42 43 43 42 43 44 45 46 48 49 49 50 52 53 54 53 49 47 46 45 39 39 40 40 40 40 47 50 53 52 52 53 52 52 52 54 54 55 56 50 53 52 53 54 54 43 42 43 43 42 41 41 41 43 53 52 51 49 49 49 49 49 49 51 50 51 49 49 46 48 47 45 44 43
43 43 44 43 43 43 41 40 40 40 40 40 41 41 42 42 43 44 44 45 46 46 47 48 49 50 50 47 45 44 42 39 38 40 40 40 42 48 53 55 55 53 53 53 55 54 54 54 53 54 55 55 55 55 54 54 55 53 52 52 53 49 41 40 40 41 48 52 51 50 52 53 49 52 54 52 49 47 48 46 49 48 48 47 49
43 41 41 41 42 40 40 40 40 41 41 41 41 40 41 42 41 41 42 42 43 43 44 45 46 47 47 47 45 43 41 37 37 38 39 41 43 49 57 57 56 56 56 56 55 55 55 56 55 55 55 55 55 54 54 54 54 55 54 54 54 54 53 52 51 51 51 53 53 53 54 56 54 55 53 53 51 52 51 50 51 50 50 45 44
41 41 41 41 42 42 42 41 41 40 40 40 41 42 41 41 41 41 41 40 41 41 42 43 44 44 45 46 45 42 40 36 36 37 37 39 43 50 52 54 55 55 56 56 56 56 56 56 56 56 56 56 52 46 48 54 54 53 53 53 53 54 53 48 42 42 49 55 55 54 55 58 51 54 56 53 53 54 49 49 50 48 46 43 41
42 42 42 42 42 42 41 41 42 41 41 42 42 42 41 41 40 41 40 39 39 38 39 39 40 42 43 44 45 43 41 37 36 36 36 37 43 46 49 47 49 51 52 53 54 55 56 55 55 56 56 56 50 46 43 43 54 54 53 54 54 54 52 52 40 38 38 38 39 39 39 40 42 43 45 45 51 51 49 47 47 46 44 43 41
42 42 42 43 43 43 43 40 40 40 40 41 42 43 44 42 43 41 39 39 38 38 38 38 38 39 41 42 43 43 42 39 36 36 36 37 41 44 44 45 47 47 48 51 51 51 54 51 52 54 55 55 47 45 44 47 54 54 55 54 54 53 53 54 48 48 38 38 38 38 38 39 40 41 41 41 42 45 49 46 48 45 45 44 41
39 39 40 41 39 40 41 42 39 39 39 40 41 41 44 44 45 43 43 40 40 39 38 37 38 39 40 41 41 42 42 41 37 36 36 36 40 43 41 41 43 45 45 44 47 49 50 51 50 49 50 49 40 41 41 45 54 55 55 55 53 54 54 55 52 50 49 48 49 48 47 43 47 49 48 40 40 44 50 50 48 44 43 42 42
41 41 41 41 40 39 40 41 43 42 41 40 40 40 41 42 42 44 45 44 43 42 41 41 39 38 38 39 41 42 41 41 39 36 36 36 37 42 42 41 41 42 42 41 42 45 46 47 49 44 41 41 40 39 40 40 51 54 55 54 54 52 55 55 54 52 52 49 50 49 50 49 49 48 47 44 44 46 49 50 47 45 44 42 41
39 39 39 39 38 38 39 40 39 39 39 40 41 42 39 40 40 41 41 41 42 42 41 42 41 40 39 39 39 40 40 40 40 36 36 36 36 38 41 41 41 41 40 41 41 42 43 44 46 45 41 40 40 39 39 40 40 51 53 54 54 54 49 54 54 43 51 50 49 47 47 45 46 46 45 45 43 44 44 46 46 45 43 40 38
37 37 37 37 38 39 38 39 40 39 39 39 39 39 39 39 39 39 37 39 40 39 40 41 42 42 42 40 39 39 39 39 39 37 36 36 36 37 39 41 39 40 41 40 40 40 42 42 43 45 40 39 39 39 39 39 39 46 50 45 44 43 52 52 52 48 48 48 47 43 43 43 42 43 43 41 41 42 44 44 44 45 45 43 39
37 37 37 37 37 37 38 39 39 38 39 39 38 38 38 38 39 39 39 39 39 39 39 39 39 39 40 40 40 40 40 40 38 38 36 36 36 36 36 38 36 41 41 40 41 40 42 43 44 42 38 38 38 38 38 38 39 46 42 41 41 40 42 50 50 49 47 46 45 43 42 41 41 39 39 39 41 43 41 42 42 41 41 41 41
36 36 37 36 37 36 36 38 39 39 39 38 38 38 38 38 38 38 38 37 36 37 36 38 37 37 36 37 38 37 38 39 38 37 37 36 35 35 35 35 35 38 39 39 40 40 41 43 41 38 37 37 37 37 38 38 42 41 40 40 39 39 47 49 48 49 45 43 42 42 42 40 40 39 39 40 40 42 42 41 40 40 39 39 38
36 35 35 36 36 37 38 38 38 38 38 38 37 39 37 37 36 37 37 37 36 36 36 36 36 36 36 37 37 37 38 37 38 38 36 36 35 35 35 35 35 35 38 38 39 39 37 36 36 36 36 37 36 37 38 38 37 37 38 38 40 46 47 48 49 49 46 43 42 43 43 42 41 42 43 41 39 39 38 39 40 39 39 39 38
35 35 35 36 36 35 37 37 37 38 38 36 37 36 36 36 36 37 36 36 36 36 35 35 35 36 36 37 36 36 38 37 37 38 37 37 36 35 35 35 36 36 37 37 36 36 36 36 35 36 37 39 43 44 43 44 40 39 39 39 45 46 47 48 48 47 46 44 43 43 43 42 40 41 41 40 38 39 36 35 35 35 36 34 34
36 37 37 37 38 38 38 37 36 36 37 35 35 36 35 35 36 35 35 35 36 35 35 35 35 34 35 35 35 35 36 36 36 37 37 37 37 37 37 38 37 37 38 40 38 39 39 38 38 37 37 37 37 38 39 39 42 44 45 45 46 46 47 47 48 48 47 46 44 44 44 41 39 37 36 36 35 36 36 35 35 34 35 33 35
36 36 37 37 37 37 37 35 35 35 35 35 34 34 35 36 35 35 35 34 34 35 34 34 34 34 34 34 34 34 34 35 35 36 36 36 36 36 37 37 38 38 38 38 38 39 39 37 38 41 41 41 42 42 42 44 43 42 43 44 45 44 44 43 43 48 48 49 47 45 40 38 36 36 36 38 35 35 37 36 34 33 33 33 33
38 37 37 37 37 37 37 36 35 34 35 35 35 35 35 36 36 36 37 35 35 36 35 35 34 35 34 34 34 35 35 35 37 35 37 35 35 36 37 37 37 37 37 35 37 38 38 39 39 40 40 38 39 40 40 41 41 42 43 43 43 44 45 45 46 46 46 46 43 39 36 38 38 38 38 35 35 34 34 34 34 34 33 32 32
37 37 36 37 37 36 36 34 34 34 34 34 35 36 34 34 35 35 36 35 35 35 35 37 37 36 36 35 37 35 35 36 35 34 34 34 35 34 34 34 34 35 35 34 35 36 37 37 38 38 39 39 39 38 39 39 39 39 39 37 38 40 42 44 45 46 44 42 42 38 37 37 37 38 35 35 36 36 37 37 38 37 34 32 29
35 36 36 36 36 37 35 35 34 34 34 35 35 35 35 37 34 34 34 35 35 34 34 34 35 35 36 36 36 35 35 34 34 34 34 34 34 34 34 34 34 34 34 34 35 36 36 36 37 38 39 39 38 38 38 38 37 37 38 38 40 40 39 42 43 42 41 39 38 37 36 36 36 36 34 35 33 32 32 31 31 32 31 31 29
35 35 36 37 37 37 35 35 36 35 35 35 35 35 34 34 36 34 34 34 34 34 34 34 34 34 34 35 35 36 35 34 34 34 35 35 35 34 34 34 34 34 34 34 35 36 36 37 37 37 38 38 37 36 38 38 37 37 37 35 35 36 37 38 40 42 39 37 37 34 34 34 35 33 34 33 31 35 34 31 30 30 30 30 30
37 37 37 37 37 36 35 36 36 36 36 36 36 35 33 32 32 34 36 34 34 34 34 34 34 34 34 34 34 34 34 34 34 35 35 35 34 34 34 34 34 34 34 35 36 37 37 38 38 39 39 38 39 39 38 37 37 37 36 36 35 36 39 39 36 41 37 36 35 33 33 32 31 31 31 31 31 30 31 30 31 30 29 29 28
38 37 37 38 37 36 36 36 36 36 36 36 36 36 35 35 34 35 34 35 36 35 34 34 34 34 34 34 34 34 34 34 34 34 34 34 33 33 33 35 34 34 34 36 38 37 39 39 39 39 39 39 39 38 36 37 36 36 35 36 37 38 38 39 39 36 33 33 33 32 32 32 31 30 30 30 31 31 30 29 30 29 28 28 29
37 34 33 35 36 36 36 36 36 37 36 36 36 35 37 36 34 34 34 33 34 34 35 36 34 34 34 34 34 34 34 34 34 34 34 33 33 34 34 38 36 36 39 38 38 38 38 38 38 39 39 39 39 38 37 38 38 36 35 35 36 37 36 35 36 35 33 33 32 32 31 32 33 31 31 30 30 29 29 29 29 29 29 29 29
37 36 38 39 39 38 38 37 36 36 36 36 36 35 35 35 35 35 35 35 34 34 34 34 35 34 34 34 34 34 34 34 34 34 33 33 33 34 36 35 35 37 37 38 38 39 39 38 39 39 39 39 39 39 38 37 37 37 37 36 34 35 34 34 33 33 33 33 32 32 32 32 32 31 32 32 32 30 29 29 28 28 29 30 28
36 36 37 36 37 37 37 37 36 35 33 34 35 36 36 35 35 35 35 34 33 34 34 34 35 36 35 35 34 34 34 34 34 33 33 33 33 36 38 37 37 38 37 38 39 39 38 38 39 39 39 39 39 39 39 37 37 36 35 36 35 34 33 33 32 32 31 31 31 32 32 31 32 32 31 30 29 29 29 29 29 29 28 28 28
37 37 36 37 37 37 36 35 35 33 35 35 36 36 36 35 35 34 34 33 33 33 34 33 34 35 34 33 35 35 34 34 34 34 34 34 35 36 36 36 36 37 37 38 38 38 38 38 39 39 39 39 39 39 38 37 37 36 35 35 34 33 33 32 32 33 32 31 31 31 31 31 30 30 30 30 29 29 28 28 28 28 28 28 27
37 31 30 31 33 35 35 34 34 34 36 36 37 35 33 33 33 33 34 33 33 33 33 34 35 35 35 34 34 35 35 33 33 33 34 34 35 36 36 36 36 36 36 37 38 38 38 39 39 40 39 39 39 39 38 37 37 35 34 33 33 33 32 32 32 32 32 32 32 32 32 31 31 31 31 30 29 29 29 29 28 28 27 26 26
36 36 33 31 34 34 34 34 35 35 34 35 35 36 34 34 34 34 34 34 33 33 33 35 35 35 34 33 33 33 34 33 33 33 33 33 34 35 35 35 35 35 35 36 37 37 38 38 38 38 38 38 38 38 38 36 34 34 34 33 33 32 32 33 33 33 33 33 33 33 33 33 32 32 31 30 29 29 29 28 28 27 27 27 28
36 36 33 32 32 34 34 34 34 34 33 34 35 36 35 34 34 33 34 34 33 33 35 35 35 35 33 32 32 32 35 35 34 33 33 33 33 34 34 34 34 34 34 35 35 35 36 37 36 35 35 35 35 36 36 35 34 33 32 32 32 33 33 32 32 32 32 32 32 32 32 32 31 30 30 29 30 29 28 27 28 27 27 27 27
36 35 34 34 34 34 34 33 33 33 34 33 35 35 35 34 34 33 33 33 32 33 33 34 35 34 33 32 32 32 34 34 33 33 34 34 34 33 33 33 33 34 34 35 35 34 34 34 33 33 33 33 33 32 33 33 32 32 32 32 32 32 31 31 31 31 31 31 30 30 30 30 29 29 29 30 28 28 28 27 27 27 27 27 27
37 34 34 34 33 33 33 33 33 33 33 34 34 33 34 34 34 34 32 32 33 33 33 33 34 34 33 32 32 32 33 32 32 32 32 33 33 32 32 32 33 33 34 34 34 34 33 33 33 33 33 33 34 33 32 32 32 33 33 33 33 33 32 32 31 31 30 30 30 30 30 30 29 29 29 28 28 28 28 28 28 28 28 27 27
35 34 33 33 33 33 33 33 33 33 34 33 33 33 35 34 35 35 35 34 33 33 33 33 33 32 33 33 32 32 32 31 31 31 31 32 32 32 32 32 33 33 33 33 33 34 33 33 32 33 34 35 36 36 34 34 34 34 34 33 33 32 32 31 31 30 30 30 29 29 29 29 29 28 28 28 28 28 27 28 27 27 27 27 27
36 34 33 33 33 33 33 33 32 33 33 34 34 34 34 35 35 34 34 35 33 33 33 32 32 32 32 32 32 32 32 31 31 32 32 32 32 32 32 32 32 32 32 32 32 33 32 32 32 32 32 32 33 33 33 33 34 33 33 33 32 31 31 31 31 31 31 30 29 29 29 29 29 28 28 28 28 27 26 27 27 29 27 27 28
35 34 33 32 32 32 32 32 33 34 34 34 34 34 34 35 35 35 34 34 33 33 33 33 33 33 32 32 32 32 32 32 32 32 32 32 32 32 31 31 31 31 30 30 30 31 31 31 31 31 31 31 31 32 32 32 32 33 33 32 31 31 31 31 31 31 31 31 30 29 29 29 29 28 28 27 27 27 28 29 29 27 26 27 28
37 34 33 32 32 32 32 33 32 33 34 34 34 35 35 35 35 34 33 33 33 33 33 33 33 33 33 33 32 32 32 32 32 32 32 32 31 31 31 30 30 29 29 29 29 28 29 29 29 30 30 30 31 31 31 31 32 32 32 33 32 32 31 31 31 31 31 31 30 29 29 28 28 28 28 28 27 27 29 27 27 27 27 26 26
35 34 33 32 33 33 32 32 33 33 34 34 34 34 33 33 33 33 33 34 33 33 33 33 32 33 33 33 33 33 33 33 32 32 32 32 31 31 30 30 28 27 27 27 27 27 27 28 29 29 29 29 30 30 30 30 31 31 31 31 31 31 31 30 31 32 31 31 31 30 30 28 28 27 28 28 28 27 26 26 27 26 27 26 26
34 34 33 32 32 32 32 31 32 32 32 33 34 34 33 33 34 33 34 33 33 33 33 32 32 33 33 34 33 34 34 33 33 33 33 32 31 31 30 29 28 27 25 25 25 25 25 25 26 26 26 26 28 29 30 30 29 29 30 30 29 27 28 28 29 30 29 31 30 31 31 30 30 30 29 29 29 28 27 28 27 27 27 28 26
34 34 34 32 33 32 32 32 32 32 33 33 34 34 34 33 32 33 34 34 33 33 33 33 33 33 33 33 34 34 34 34 34 34 33 32 32 31 29 29 28 27 25 25 25 25 25 26 26 25 25 26 26 27 27 28 29 29 29 28 28 28 28 28 29 29 29 30 31 30 31 30 30 29 29 29 29 29 29 28 28 27 27 27 26
33 33 33 33 33 32 32 32 33 33 34 33 34 34 34 34 34 34 33 33 33 33 33 33 34 34 34 34 34 34 33 33 33 32 32 32 31 30 29 28 27 27 27 26 25 24 25 25 24 24 24 24 25 25 26 27 27 27 26 27 27 28 28 29 29 28 29 30 31 30 30 30 30 29 29 28 28 28 28 28 28 27 26 26 27